Simultaneous Nadir Overpasses (SNOs) Predictions

Prediction of SNOs between LANDSAT-8 and TERRA Satellite Orbit:

Table of predicted SNOs for the next 14.0 days since TLE Epoch: 12/5/2024
Index Date (LANDSAT-8) Time (LANDSAT-8) Lat,Lon (LANDSAT-8) SZA (LANDSAT-8 ) Date (TERRA) Time (TERRA) Lat,Lon (TERRA) SZA (TERRA ) Distance(km) Time Diff (sec)
1 12/09/2024 16:09:29 81.82, 4.05 109.66 12/09/2024 16:10:41 81.82, 3.88 109.68 2.74 72
2 12/09/2024 16:58:56 -81.82, 171.52 70.37 12/09/2024 17:00:00 -81.82, 171.62 70.32 1.65 64
3 12/09/2024 17:48:22 81.82, -20.69 109.66 12/09/2024 17:49:21 81.82, -20.73 109.69 0.60 59
4 12/09/2024 18:37:48 -81.82, 147.20 70.31 12/09/2024 18:38:40 -81.82, 147.02 70.31 2.99 52
5 12/09/2024 19:27:15 81.82, -45.43 109.66 12/09/2024 19:28:01 81.82, -45.33 109.70 1.53 46
6 12/09/2024 20:16:41 -81.82, 122.47 70.31 12/09/2024 20:17:20 -81.81, 122.41 70.29 0.90 39
7 12/09/2024 21:06:07 81.82, -69.74 109.72 12/09/2024 21:06:41 81.81, -69.94 109.71 3.14 34
8 12/09/2024 21:55:34 -81.82, 97.73 70.30 12/09/2024 21:56:00 -81.81, 97.81 70.28 1.33 26
9 12/09/2024 22:45:00 81.82, -94.48 109.72 12/09/2024 22:45:21 81.81, -94.54 109.72 1.06 21
10 12/09/2024 23:34:27 -81.82, 72.99 70.30 12/09/2024 23:34:41 -81.82, 72.78 70.32 3.34 14
11 12/10/2024 00:23:53 81.82,-119.22 109.73 12/10/2024 00:24:01 81.81,-119.15 109.74 1.21 8
12 12/10/2024 01:13:20 -81.82, 48.25 70.30 12/10/2024 01:13:21 -81.82, 48.18 70.31 1.25 1
13 12/10/2024 02:02:46 81.82,-143.96 109.73 12/10/2024 02:02:41 81.81,-143.75 109.75 3.30 5
14 12/10/2024 02:52:13 -81.82, 23.51 70.30 12/10/2024 02:52:01 -81.82, 23.57 70.29 1.02 12
15 12/10/2024 03:41:39 81.82,-168.70 109.73 12/10/2024 03:41:22 81.82,-168.78 109.71 1.40 17
16 12/10/2024 04:31:06 -81.82, -1.23 70.29 12/10/2024 04:30:41 -81.82, -1.03 70.28 3.09 25
17 12/10/2024 05:20:32 81.82, 166.56 109.73 12/10/2024 05:20:02 81.82, 166.61 109.72 0.84 30
18 12/10/2024 06:09:58 -81.81, -25.54 70.24 12/10/2024 06:09:21 -81.82, -25.64 70.27 1.56 37
19 12/10/2024 06:59:25 81.82, 141.82 109.74 12/10/2024 06:58:42 81.82, 142.01 109.74 2.92 43
20 12/10/2024 07:48:51 -81.81, -50.28 70.24 12/10/2024
